Regional Weather Roundup
Issued by NWS

Home | Current Version | Previous Version | Graphics & Text | Print | Product List | Glossary On
Versions: 1 2 3 4 5 6 7 8 9 10 11 12 13 14 15 16 17 18 19 20 21 22 23 24 25 26 27 28 29 30 31 32 33 34 35 36 37 38 39 40 41 42 43 44 45 46 47 48 49 50
000
ASUS43 KLOT 171910
RWRIL

ILLINOIS REGIONAL WEATHER ROUNDUP
NATIONAL WEATHER SERVICE CHICAGO/ROMEOVILLE IL
200 PM CDT WED SEP 17 2014

NOTE: "FAIR" INDICATES FEW OR NO CLOUDS BELOW 12,000 FEET WITH NO
SIGNIFICANT WEATHER AND/OR OBSTRUCTIONS TO VISIBILITY.

* THESE STATIONS ARE NOT UNDER NWS QUALITY CONTROL. THEY ALSO MAY NOT
  REPORT WEATHER SUCH AS PRECIPITATION OR FOG.

ILZ001-002-007-009-015-016-024-172000-
NORTHWEST ILLINOIS

CITY           SKY/WX    TMP DP  RH WIND       PRES   REMARKS
MOLINE         CLOUDY    67  52  58 VRB5      29.99F
STERLING*      PTSUNNY   72  52  49 SW7       29.99F
SAVANNA*       SUNNY     70  50  48 SW8       29.99F
$$

ILZ003-004-008-010-011-017-018-172000-
NORTH CENTRAL ILLINOIS

CITY           SKY/WX    TMP DP  RH WIND       PRES   REMARKS
ROCKFORD       PTSUNNY   69  48  47 NW3       30.01F
FREEPORT*      PTSUNNY   66  51  60 S9        30.02F
ROCHELLE*      MOSUNNY   69  47  46 CALM      30.01F
DE KALB*       PTSUNNY   66  48  52 SW7       30.01F
PERU*          SUNNY     68  50  52 W3        30.01F
$$

ILZ005-006-012>014-019>023-172000-
NORTHEAST ILLINOIS

CITY           SKY/WX    TMP DP  RH WIND       PRES   REMARKS
CHICAGO-OHARE  PTSUNNY   70  44  39 SW7       30.00F
CHICAGO-MIDWAY PTSUNNY   69  47  45 SW9       30.00F
AURORA         SUNNY     69  45  41 W7        30.01F
LANSING*       SUNNY     68  47  48 W9        30.01F
JOLIET*        SUNNY     68  45  43 S5        30.01F
WAUKEGAN       SUNNY     66  45  46 S5        29.99F
DUPAGE AIRPORT CLOUDY    69  46  43 SW6       30.00F
KANKAKEE*      MOSUNNY   69  51  52 SW6       30.01F
WHEELING       MOSUNNY   69  45  41 W6        30.01F
MORRIS*        SUNNY     69  48  46 W7        30.00F
ROMEOVILLE*    PTSUNNY   68  46  45 NW6       30.01F
NORTHERLY ISL    N/A     64  48  56 E8          N/A
$$

LMZ740>746-172000-
SOUTHERN LAKE MICHIGAN

STATION/POSITION SKY/WX   TEMP    WIND        PRES    VSBY  WAVE
                          AIR SEA DIR/SP/G                  HT/PER
                          (F)     (DEG/KT/KT) (MB)    (MI)  (FT/S)
SOUTHERN BUOY              62 65  230/  6/  8 1016.5F         1/ 4
WAUKEGAN HARBOR            65     140/ 10/ 11   N/A
HARRISON CRIB              62      80/  8/  9   N/A
BURNHAM HARBOR             64      70/  6/  8   N/A
CALUMET HARBOR             64      70/  8/ 10 1014.8F
MICHIGAN CITY              64     320/  8/  9   N/A
MICHIGAN CITY 6N           63 66  350/  6/  8   N/A           1
ST. JOSEPH                 62 67  270/  8/ 10   N/A           1/ 2
$$

ILZ025>027-034>036-040-047-049-050-058-095>099-172000-
WEST-CENTRAL ILLINOIS

CITY           SKY/WX    TMP DP  RH WIND       PRES   REMARKS
QUINCY         CLOUDY    66  56  70 SE9       29.97F
GALESBURG*     CLOUDY    70  55  59 SE5       30.00F
MACOMB*        CLOUDY    63  54  71 SE6       30.02F
JACKSONVILLE*  CLOUDY    64  54  69 SE3       30.01F
PITTSFIELD*    CLOUDY    65  56  73 E6        30.00F
$$

ILZ028>032-037-038-041>044-048-051>054-059>061-172000-
CENTRAL ILLINOIS

CITY           SKY/WX    TMP DP  RH WIND       PRES   REMARKS
PONTIAC        MOSUNNY   70  50  49 CALM      30.01F
DECATUR        MOSUNNY   66  51  58 S10       30.02F
PEORIA         CLOUDY    67  51  56 SW9       30.00F
LACON*         PTSUNNY   67  52  58 W3        30.00F
LINCOLN*       CLOUDY    68  51  53 S5        29.99F
SPRINGFIELD    PTSUNNY   66  52  60 SE7       30.01F
TAYLORVILLE    CLOUDY    63  52  67 S6        30.01F
$$

ILZ033-039-045-046-055>057-062-063-172000-
EAST-CENTRAL ILLINOIS

CITY           SKY/WX    TMP DP  RH WIND       PRES   REMARKS
CHAMPAIGN      PTSUNNY   67  51  56 S6        30.02F
DANVILLE*      CLOUDY    67  51  55 SW7       29.99F
RANTOUL*       MOSUNNY   69  47  44 CALM      30.02F
MATTOON        CLOUDY    64  52  64 S7        30.02F
PARIS*         CLOUDY    66  52  59 S6        30.03F
$$

ILZ079-100>102-172000-
SOUTHWEST ILLINOIS

CITY           SKY/WX    TMP DP  RH WIND       PRES   REMARKS
ALTON          CLOUDY    59  55  88 SE9       30.01F
BELLEVILLE     PTSUNNY   62  56  81 N6        29.98F
CAHOKIA*       CLOUDY    67  57  70 E10       29.97F
SPARTA*        MOSUNNY   67  57  69 E6        29.99F
$$

ILZ064>066-069>071-074>076-080>082-084>086-088>090-092>094-172000-
SOUTH-CENTRAL ILLINOIS

CITY           SKY/WX    TMP DP  RH WIND       PRES   REMARKS
CARBONDALE     MOSUNNY   68  55  63 E7        29.99F
CAIRO*         CLOUDY    67  56  69 S3        30.00F
EFFINGHAM*     CLOUDY    65  49  58 CALM      30.02F
MARION         PTSUNNY   70  55  60 S7        30.01F
MT. VERNON     CLOUDY    63  54  72 E3        30.00F
CENTRALIA*     LGT RAIN  61  54  76 E5        30.00F
SALEM*         CLOUDY    65  56  72 E3        30.01F
METROPOLIS*    CLOUDY    67  56  67 CALM      30.00F
$$

ILZ067-068-072-073-078-083-087-091-172000-
SOUTHEAST ILLINOIS

CITY           SKY/WX    TMP DP  RH WIND       PRES   REMARKS
LAWRENCEVILLE  MOSUNNY   69  52  54 N6        30.03F
FLORA*         MOSUNNY   64  51  63 SE5       30.02F
FAIRFIELD*     LGT RAIN N/A N/A N/A SE6       30.00F
HARRISBURG*    MOSUNNY   67  51  56 E5        30.00F
ROBINSON*      PTSUNNY   69  53  56 SW6       30.05F
CARMI*         CLOUDY    68  54  60 CALM      30.01F
$$

ABBREVIATIONS USED IN REMARKS
   TC - TEMPERATURE IN CELSIUS
  WCI - WIND CHILL INDEX
   HX - HEAT INDEX
  VSB - VISIBILITY
$$




USA.gov is the U.S. government's official web portal to all federal, state and local government web resources and services.